1998-067RN

Last updated on Fri Jun 26 2020 00:02:06 GMT+0000 (Coordinated Universal Time)

1 45809U 98067RN 20177.46899596 .00005179 00000-0 10000-3 0 9995 2 45809 51.6456 307.4753 0002067 62.4743 297.6034 15.49603499 253
UTC large
Height (km)
Speed (km/s)
/
Latitude / Longitude
Inclination (degrees)
Orbital Period (minutes)
Azimuth
Elevation
Range (km)
Doppler Factor

Next 0 passes for location: London (51.5072 / 0.1276)

Sorry there are no passes over London.